Location: Unspecified
(41.5516°N, 88.1098°W)
Time: 03:44:40
(UTC-05:00)

HST - Visible Passes

Search period start: 16 April 2014 00:00
Search period end: 26 April 2014 00:00
Orbit: 549 x 553 km, 28.5° (Epoch: 15 April)

Date Brightness Start Highest point End Pass type
(mag) Time Alt. Az. Time Alt. Az. Time Alt. Az.
17 Apr 3.0 20:21:38 10° S 20:22:17 10° SSE 20:22:56 10° SSE visible
18 Apr 3.0 20:14:11 10° SSW 20:15:40 12° S 20:17:09 10° SSE visible
19 Apr 3.0 20:07:12 10° SSW 20:09:03 13° S 20:10:53 10° SSE visible
